Theta_e
310 310 310 310 310 310 310 310 310 310 310 310 310 310 310 310 310 310 310 310 310 310 310 311 311 312 312 313 313 313 313 313 313 312 312 313 314 315 315 316 316 316 316 316 316 317 317 316 315 315 315 315 315 316 316 317 319 320 325 324 321 326 326 324 326 319 317 323 320 315 315 314 316 316 315 316 316 316 316 316 317 316 317 317 317 317 317 317
310 310 310 309 310 310 310 310 310 310 310 310 311 310 311 311 311 311 311 311 311 311 312 312 313 313 313 314 314 314 314 314 314 313 314 315 314 314 314 315 316 315 315 315 315 316 317 316 316 315 315 316 315 317 317 317 318 323 325 321 323 328 322 317 319 315 314 318 316 315 315 313 315 315 314 316 316 315 315 316 315 316 317 317 317 317 317 317
309 310 310 310 310 310 310 310 310 310 311 311 311 311 311 311 311 312 312 312 312 313 313 313 314 314 314 314 314 314 314 315 314 314 316 315 315 315 314 315 316 316 315 315 315 315 316 316 316 316 315 315 316 317 318 318 318 320 319 323 330 325 315 313 314 314 315 316 313 314 314 312 314 314 313 314 314 314 315 315 314 315 316 317 317 316 316 317
309 310 310 310 310 310 310 310 310 310 310 311 311 311 312 312 312 312 312 313 313 313 314 314 314 314 314 314 314 314 314 314 315 316 316 315 316 316 314 315 316 316 316 315 315 315 315 316 316 315 315 315 315 316 318 318 319 318 318 327 328 315 315 317 315 316 316 315 313 313 313 312 314 314 313 313 314 316 315 315 315 315 316 316 316 316 316 316
309 310 310 310 310 310 310 310 310 310 310 311 311 311 311 312 312 313 313 313 313 313 314 314 314 314 314 314 314 314 314 315 317 316 314 315 317 316 314 315 315 316 316 316 315 314 315 316 316 315 315 315 315 316 318 317 318 318 318 321 319 312 316 319 316 318 316 315 314 312 313 315 315 314 313 313 314 317 316 316 317 316 316 316 316 316 316 316
310 310 310 310 310 310 310 310 310 310 310 311 311 311 311 312 312 312 313 313 313 314 314 314 314 314 314 314 314 314 314 315 316 315 314 316 317 316 315 315 315 315 316 316 315 314 314 316 316 315 314 314 315 317 317 317 317 319 319 317 316 316 316 317 317 317 316 315 313 313 315 315 313 314 314 313 314 317 317 317 316 316 316 315 315 315 315 315
310 310 310 310 310 310 310 310 311 310 311 311 311 311 311 312 312 312 313 313 313 313 314 314 314 314 314 314 314 314 313 315 315 314 314 315 317 316 315 315 315 315 315 315 315 314 313 315 316 315 314 314 315 316 315 315 315 318 320 315 316 317 315 317 317 317 317 316 315 316 315 313 313 315 314 312 315 317 317 317 316 316 316 315 315 315 315 315
310 310 310 310 310 311 311 311 311 311 311 311 311 311 311 311 311 312 312 312 312 313 313 313 313 313 313 313 313 313 313 314 314 314 315 315 316 315 314 315 315 315 315 315 315 315 313 314 315 314 314 315 314 315 314 314 315 317 320 316 314 316 316 317 316 316 316 315 316 315 313 313 315 314 312 311 314 316 316 316 316 316 316 315 315 315 315 315
312 312 312 312 312 312 312 312 312 312 312 312 312 312 312 312 312 312 312 312 312 312 312 312 313 313 313 313 313 313 313 314 314 315 315 315 315 314 315 315 315 315 315 315 315 315 314 313 314 314 314 314 314 314 313 315 316 316 317 315 314 314 315 315 315 314 314 314 314 313 312 314 314 313 312 313 315 316 316 316 316 315 315 315 315 314 315 315
312 312 312 312 312 312 312 312 312 312 312 313 313 313 313 313 313 314 313 313 313 313 313 313 313 313 313 313 313 313 314 315 315 315 315 315 315 314 315 314 315 315 315 315 315 315 315 313 313 313 314 314 313 313 312 315 316 314 313 313 312 312 313 312 312 313 312 312 312 313 314 314 312 312 313 314 315 315 315 315 315 314 314 314 314 314 315 315
313 313 313 313 312 312 312 312 312 312 312 312 312 312 312 312 312 313 313 314 314 314 314 314 314 314 314 314 313 313 315 315 315 315 315 315 315 315 315 315 315 315 315 315 315 314 314 313 312 313 314 314 313 312 312 313 314 313 311 312 312 310 311 311 310 311 311 312 312 312 313 312 311 311 313 314 315 314 314 315 314 315 315 315 315 315 315 315
315 315 315 315 314 314 314 314 314 314 314 314 314 313 313 313 312 312 313 312 312 313 313 314 314 314 314 312 312 314 315 315 316 315 316 315 315 315 315 315 315 314 315 315 314 313 312 312 311 312 314 313 313 312 312 313 312 312 312 314 314 312 312 312 312 311 311 312 312 310 311 314 314 313 314 314 315 314 313 314 314 315 315 315 316 316 315 316
316 316 316 316 316 316 316 316 317 317 317 317 317 317 317 317 316 316 316 315 314 312 311 311 311 312 311 311 313 315 315 315 315 315 316 316 315 315 315 314 315 314 314 314 314 313 311 311 310 312 313 312 313 312 312 311 311 312 312 313 314 313 314 313 311 310 310 311 311 311 313 318 318 314 314 314 314 313 312 313 314 315 315 315 316 315 316 316
316 316 316 316 316 317 317 317 318 318 319 319 319 319 319 320 320 320 320 320 319 317 315 313 311 311 310 311 313 313 313 313 314 314 315 315 315 315 315 314 314 314 314 314 314 313 312 311 311 312 312 313 313 312 313 313 314 315 311 312 314 314 317 314 310 309 310 311 311 312 313 315 316 313 314 314 312 312 312 313 314 315 315 315 315 315 315 315
315 315 316 316 316 316 316 316 316 316 316 316 316 317 317 317 317 318 318 319 319 319 319 317 314 312 310 310 312 312 312 313 314 314 314 314 314 314 314 314 314 314 314 314 313 312 312 312 313 313 312 313 312 313 318 318 322 321 312 316 318 315 317 315 310 308 311 312 309 312 314 313 313 313 314 313 311 312 312 312 314 314 314 314 314 314 314 315
313 313 313 313 313 313 313 313 313 313 313 313 313 313 313 313 313 313 314 314 314 315 317 317 316 313 311 311 312 312 313 313 314 314 314 314 314 314 313 314 314 314 314 313 313 312 312 313 313 313 312 312 314 319 322 319 323 322 314 315 318 315 314 314 313 309 309 312 310 311 314 314 313 313 314 314 311 311 311 312 312 312 313 313 313 313 314 314
313 312 312 312 312 312 312 312 312 312 312 312 312 312 312 312 312 312 312 312 312 312 313 315 314 312 312 313 313 314 314 313 313 313 314 314 314 315 314 314 314 314 314 313 313 312 312 312 312 313 313 312 314 318 319 317 318 319 314 315 316 315 312 313 316 311 307 311 312 312 311 311 313 311 311 313 313 310 309 310 311 311 312 312 312 312 313 314
312 312 312 312 312 312 312 312 312 312 313 313 313 312 312 312 312 312 313 312 312 311 311 313 313 313 315 315 315 315 314 313 313 313 313 314 315 315 315 315 314 314 313 312 313 312 312 310 310 315 315 312 313 314 316 316 316 316 315 316 315 314 313 312 314 312 310 312 312 312 311 310 311 310 309 311 312 310 309 309 310 310 310 311 312 311 313 314
312 313 313 313 313 314 314 314 315 315 316 316 315 314 313 312 312 313 314 313 312 313 314 314 313 315 317 316 315 315 313 312 312 313 314 314 314 315 315 314 314 313 312 313 313 310 311 311 311 315 315 313 313 312 314 315 314 314 314 314 313 313 312 312 312 310 310 311 310 311 310 310 310 310 309 310 311 310 309 310 310 310 310 311 311 311 312 312
314 314 314 315 315 315 316 317 319 320 320 320 319 318 315 312 312 313 313 313 313 313 314 314 314 315 316 315 315 314 313 313 313 313 314 315 314 314 314 313 313 312 311 316 316 310 310 314 314 315 315 313 312 311 312 313 312 312 312 312 313 312 311 311 311 310 309 309 311 311 310 310 310 310 309 309 309 309 308 309 310 310 310 311 311 312 312 313
316 316 316 316 317 317 318 320 321 322 322 322 322 322 317 312 312 313 312 314 315 314 313 313 313 313 313 314 314 314 313 313 313 314 314 314 314 314 313 312 312 313 311 312 313 309 309 313 314 315 314 313 314 312 311 312 311 312 312 313 312 312 311 310 311 311 308 309 311 311 311 310 309 310 309 309 309 309 309 309 310 311 311 312 312 312 313 313
318 318 318 319 319 320 321 321 322 322 322 322 322 322 319 316 314 313 311 312 316 317 317 316 314 312 313 314 313 313 313 313 313 313 314 314 314 314 313 312 314 315 312 310 311 311 311 312 312 312 312 313 315 313 310 311 312 313 312 312 312 311 311 311 311 312 310 310 313 313 311 309 310 310 310 310 310 310 310 310 311 312 311 311 312 312 313 313
320 320 320 321 321 322 322 322 323 322 322 322 322 322 321 319 315 313 312 311 314 319 320 320 318 316 316 317 314 312 311 312 312 313 313 313 313 313 312 311 313 315 314 312 313 314 314 314 312 309 309 311 313 312 312 311 311 312 312 312 313 311 312 312 312 315 313 310 312 312 310 310 310 310 310 310 309 310 311 311 311 312 311 312 313 313 312 312
321 321 321 322 322 323 323 323 323 323 322 322 322 322 321 319 315 314 313 312 314 316 318 320 317 316 317 317 314 313 311 311 312 312 313 313 313 313 312 311 313 314 313 312 313 313 315 314 310 309 310 310 312 311 312 312 311 312 312 312 312 312 312 311 312 314 313 313 314 313 311 313 314 313 314 312 309 310 310 309 310 311 313 314 313 313 313 313
322 323 322 322 323 323 323 323 323 323 323 323 323 322 321 318 316 315 313 315 318 316 315 317 314 314 315 314 313 312 310 311 311 311 312 313 313 312 311 310 312 314 313 312 312 312 312 311 309 311 312 311 311 312 313 314 312 312 313 312 311 312 311 311 312 312 313 317 316 313 313 316 317 315 318 317 315 314 310 309 310 310 315 314 311 313 315 315
324 325 324 324 325 324 324 324 323 323 323 323 323 322 321 318 317 317 313 317 323 318 313 314 313 313 312 311 312 310 312 313 311 311 311 312 313 312 312 311 310 313 313 311 311 311 312 310 310 313 314 313 312 312 314 314 311 313 316 316 312 311 312 313 313 312 316 319 313 313 316 316 315 315 318 319 319 320 315 313 312 309 311 312 311 314 316 317
326 326 325 325 325 324 324 324 323 324 324 324 324 322 321 319 316 315 315 321 324 318 314 313 312 312 311 310 310 311 317 317 311 310 311 312 312 311 312 313 310 310 309 309 312 313 313 312 311 312 312 314 313 312 314 312 311 315 316 318 317 314 314 313 312 312 316 317 313 314 317 316 315 315 317 315 315 319 317 316 314 309 309 310 312 316 316 317
326 325 325 325 325 324 324 324 324 323 324 324 324 323 321 319 317 315 320 328 326 316 314 313 311 312 311 310 310 310 312 312 310 311 311 311 312 310 311 312 312 312 308 309 314 312 312 314 314 313 312 313 314 313 315 312 313 316 313 314 316 315 315 313 314 315 314 314 315 314 315 317 318 315 316 313 312 318 317 316 315 311 310 310 312 316 316 316
326 325 326 325 325 325 324 324 324 323 324 324 324 324 321 318 316 316 322 327 323 314 313 312 311 312 310 310 310 309 309 309 309 311 310 311 312 309 311 310 309 312 308 309 313 311 311 313 312 314 315 314 314 315 317 315 314 313 311 312 315 316 316 315 316 316 315 316 316 315 315 317 318 317 318 315 315 320 318 316 315 311 310 311 314 316 316 316
325 325 326 326 325 325 324 324 324 324 324 323 324 324 319 317 316 319 325 326 321 317 312 311 312 310 310 311 311 309 309 309 309 310 309 310 311 309 310 309 307 312 312 309 312 311 308 307 307 311 313 312 314 312 310 312 310 308 311 316 318 318 317 317 318 317 315 317 317 318 316 315 318 319 319 319 318 320 318 317 317 313 311 312 315 316 315 316
323 324 325 325 325 325 324 324 324 324 324 324 324 321 318 318 320 325 328 322 319 321 314 311 313 312 312 313 313 312 310 309 307 310 311 310 311 309 309 310 309 315 317 312 313 312 308 307 309 311 308 308 313 311 306 306 306 307 315 318 317 319 317 317 320 317 316 319 318 318 315 314 317 317 318 321 318 317 318 320 324 323 315 313 315 316 315 316
321 323 324 324 325 324 324 324 323 324 323 323 323 320 319 321 322 325 326 321 323 324 316 314 314 314 314 313 315 315 311 310 308 309 313 313 313 312 312 315 315 317 320 318 317 316 313 312 311 310 308 308 312 314 311 310 308 309 316 316 314 318 317 317 321 318 317 319 315 313 313 313 315 315 315 318 317 318 316 313 318 320 315 313 314 316 315 315
319 320 321 322 323 323 323 323 323 323 323 323 321 319 320 322 323 324 324 324 324 320 314 315 313 314 315 313 318 316 311 313 311 308 311 311 312 314 315 316 315 315 317 317 317 318 318 316 310 309 311 310 311 314 314 315 313 311 314 315 315 317 317 319 323 319 318 320 314 310 313 315 317 318 318 317 314 314 312 309 311 312 312 312 313 314 315 314
317 317 318 319 320 321 321 322 323 322 322 321 319 320 321 322 322 323 324 325 324 319 316 315 314 315 315 315 320 317 314 319 314 309 312 312 312 317 317 313 311 313 313 313 315 317 318 318 315 314 314 312 311 311 315 319 315 310 314 316 316 320 322 322 324 321 320 321 314 309 314 319 320 319 321 319 312 309 309 309 311 310 310 311 312 313 314 313
316 315 316 316 316 318 319 320 322 322 321 319 318 321 322 322 322 322 324 325 324 321 317 315 315 318 318 319 320 316 315 321 316 311 313 314 315 319 320 316 312 312 313 313 316 315 314 320 320 314 310 311 311 311 314 319 316 312 314 316 314 318 322 318 320 321 318 318 315 312 317 320 317 315 317 318 312 309 309 308 307 309 310 311 312 313 313 313
315 315 315 314 315 315 316 318 321 321 319 318 319 321 321 321 323 324 322 320 320 319 319 319 318 320 322 322 322 316 313 315 315 313 314 315 316 317 318 319 314 311 312 315 318 317 314 319 319 310 308 310 310 309 310 313 316 314 313 316 314 315 318 316 318 319 315 315 316 316 318 318 317 316 316 317 316 313 312 311 307 308 310 311 312 313 313 312
314 314 314 314 314 314 315 317 320 320 318 317 320 322 321 320 321 323 320 316 315 317 319 321 320 322 324 323 323 320 314 314 314 314 316 317 317 316 317 319 312 309 312 313 316 318 316 317 317 313 313 311 305 306 308 307 311 315 315 315 313 313 316 316 318 319 317 317 317 316 318 317 317 318 317 320 321 316 316 317 312 307 307 309 311 313 312 312
311 312 312 313 314 314 314 315 318 319 316 316 319 320 322 320 317 318 317 314 315 317 319 321 321 322 324 323 324 322 317 317 317 316 318 319 317 316 319 319 312 308 310 309 313 317 315 314 316 315 316 312 305 308 312 308 307 311 314 314 313 315 317 316 317 318 317 317 318 318 318 317 317 317 316 317 319 318 319 320 318 314 310 308 311 312 312 312
309 309 310 312 313 314 314 314 317 318 315 316 318 319 321 321 317 316 316 315 316 319 320 321 321 322 322 322 322 322 320 319 319 317 318 320 317 315 315 316 313 308 306 307 312 316 315 314 315 316 315 313 310 312 317 315 310 308 309 312 313 314 315 315 317 319 319 319 319 320 320 320 319 317 317 316 317 320 321 319 321 319 309 306 310 311 311 312
306 307 310 311 312 313 313 313 316 316 315 317 317 317 318 318 316 316 317 317 316 318 319 320 321 320 320 320 321 321 321 320 319 318 319 320 320 317 315 315 316 313 309 309 312 315 316 315 315 315 314 313 314 315 317 318 315 312 312 313 312 312 315 315 315 317 318 318 319 320 320 320 319 316 316 316 317 321 321 319 321 315 306 307 311 311 310 310
305 307 309 310 311 313 313 314 315 314 315 317 316 316 317 316 315 315 316 316 316 317 317 318 320 319 319 319 320 320 320 320 320 319 319 321 320 319 318 316 316 316 313 312 314 315 316 315 315 316 315 314 316 317 316 316 317 316 315 314 313 313 315 316 316 316 316 315 317 319 318 319 319 318 317 315 317 320 318 316 317 311 308 311 312 310 308 307
305 307 309 310 311 313 314 315 315 314 315 316 316 316 316 315 316 315 315 315 315 315 315 316 318 318 317 318 318 318 319 320 320 319 318 320 319 318 318 315 313 314 315 316 317 315 313 313 314 315 315 315 315 316 316 316 316 316 314 315 315 314 313 316 318 317 316 315 315 316 317 318 319 320 318 316 315 315 311 310 311 310 309 310 309 307 305 303
305 307 309 311 311 313 314 315 315 315 315 315 315 315 315 315 315 315 314 314 314 314 315 315 316 316 316 317 317 317 317 318 318 318 318 319 318 317 315 315 313 313 314 318 318 314 311 312 313 313 315 315 315 316 314 313 314 315 314 315 315 313 313 315 315 315 316 316 316 317 317 318 320 322 320 316 314 312 311 309 307 305 303 302 302 301 301 300
303 304 305 308 312 313 314 315 315 316 315 315 314 314 315 314 314 314 314 314 314 315 315 316 315 315 316 316 316 316 317 317 316 316 317 317 317 313 310 311 313 313 313 314 315 314 312 314 315 315 316 317 317 316 313 312 314 316 316 315 313 313 314 314 313 312 313 314 315 316 316 317 322 324 320 317 315 313 311 306 301 299 298 297 297 297 297 298
300 301 301 303 308 311 311 313 314 314 314 315 314 314 314 314 314 314 314 314 314 314 315 315 312 311 312 313 313 313 313 314 314 315 315 315 315 310 306 308 309 309 308 307 309 312 313 314 315 315 317 317 316 315 314 315 316 314 315 315 313 313 314 313 314 314 314 315 315 315 315 315 319 320 316 314 312 309 305 300 296 296 295 295 295 295 296 297
299 301 302 302 304 306 307 309 311 312 313 313 314 314 314 314 314 313 314 314 313 313 313 313 311 310 311 312 312 312 312 312 312 313 313 315 316 309 304 306 306 304 305 305 304 307 310 312 314 314 315 315 315 314 314 315 315 313 313 314 313 314 313 312 313 314 315 315 314 315 315 314 316 316 310 305 302 300 299 298 295 294 293 294 294 294 295 295
297 300 302 304 304 304 306 307 308 309 310 311 312 313 312 312 312 312 313 313 313 312 312 311 311 312 313 312 313 312 313 313 312 312 312 312 312 308 304 304 304 302 303 303 302 306 309 310 312 313 312 313 313 313 312 312 312 312 313 313 313 313 313 313 313 313 313 314 315 315 314 314 315 311 302 297 297 296 296 296 294 292 293 293 293 293 294 294
298 299 300 301 302 303 305 304 303 304 306 307 309 310 310 310 310 310 311 310 310 311 312 311 311 312 311 311 312 312 312 313 312 311 311 308 306 307 307 306 303 300 300 300 301 306 308 308 309 311 310 310 309 309 309 310 310 310 310 311 311 312 312 312 312 312 312 313 314 313 313 313 312 305 297 294 295 294 294 295 294 292 292 293 292 293 293 293
296 297 297 298 298 299 301 300 300 301 302 304 306 307 308 309 309 308 309 309 310 310 311 311 308 306 305 305 308 310 310 311 311 309 307 305 304 305 306 306 303 300 298 299 300 304 306 307 308 307 306 306 306 306 307 307 307 308 308 309 309 310 310 310 311 311 311 311 312 311 312 311 304 297 295 294 294 293 294 294 294 292 292 293 293 292 293 293
294 296 296 297 296 297 297 297 298 299 300 302 304 305 306 307 308 307 307 308 310 309 308 308 304 301 301 302 302 305 305 305 307 306 302 303 305 303 302 303 302 299 298 299 301 303 305 305 305 304 304 304 305 305 305 306 306 306 306 306 306 307 307 307 308 309 308 309 309 309 312 309 299 294 295 294 293 293 293 293 294 293 292 292 292 293 293 292
294 295 295 295 295 296 297 296 297 299 300 301 303 304 305 305 303 302 303 303 304 304 302 300 299 298 300 301 300 301 300 299 300 300 299 300 302 300 299 300 299 298 298 300 301 302 302 302 302 303 302 303 303 303 303 303 303 303 303 303 303 303 303 303 304 305 305 306 307 308 309 304 296 294 294 293 292 293 292 293 293 293 292 292 292 292 292 292
294 293 294 294 293 294 296 295 296 298 298 299 300 300 301 300 297 298 302 301 299 298 297 296 297 298 298 300 300 299 297 296 296 297 296 297 297 297 297 297 297 298 298 299 300 300 301 301 301 301 301 301 302 302 301 301 301 300 300 301 301 300 300 301 302 302 301 302 304 305 302 297 294 294 294 293 293 292 292 292 292 292 293 292 292 292 292 292
Wind_Speed
8 8 7 7 7 6 6 6 5 5 5 5 5 5 4 4 4 5 5 5 6 6 6 7 7 8 8 9 10 11 12 13 13 14 12 6 4 6 7 9 9 8 8 7 6 6 5 6 6 6 6 5 3 3 4 5 6 4 3 2 3 3 4 6 8 7 4 4 6 5 7 4 8 12 9 8 11 15 18 21 21 22 24 25 26 26 26 26
9 9 8 8 8 7 7 6 6 6 6 6 5 5 5 5 5 5 5 5 6 6 7 7 8 9 10 11 11 13 14 14 16 15 8 1 6 9 6 8 11 11 10 8 7 6 6 6 7 8 7 5 3 3 4 5 7 5 3 2 4 5 6 7 9 8 5 6 7 11 14 8 10 12 8 6 9 12 12 18 23 24 27 27 28 28 28 28
9 9 9 9 9 8 8 8 8 7 7 7 7 7 7 6 6 6 6 6 6 7 8 9 9 10 11 12 13 14 14 17 16 8 3 2 9 11 7 6 11 13 11 9 7 7 7 6 6 8 9 6 4 4 4 5 6 5 3 2 7 7 6 9 13 13 13 12 9 13 15 10 15 14 7 5 8 10 10 18 21 23 29 28 25 26 27 28
9 9 10 10 10 9 9 9 9 9 9 9 9 9 9 8 8 8 8 8 8 9 9 10 11 12 13 14 15 15 16 17 8 3 8 10 10 9 6 6 7 12 13 10 9 9 9 8 8 8 8 5 4 4 4 7 6 5 6 5 6 5 4 12 17 17 17 15 11 12 11 12 19 14 10 8 6 8 15 24 24 23 30 27 23 23 26 28
10 10 10 10 10 10 10 10 10 10 10 11 11 11 11 11 10 10 10 10 10 10 11 12 13 14 15 16 16 16 15 10 1 2 13 12 7 7 6 6 5 8 12 13 11 10 10 8 8 8 7 4 3 2 4 10 9 4 7 11 10 5 4 12 15 14 14 12 11 10 8 16 19 14 15 11 5 13 24 29 27 28 31 28 25 23 26 29
11 11 11 11 11 11 11 11 11 11 12 12 12 13 13 13 13 13 12 12 12 12 13 13 14 14 16 16 17 17 10 4 4 8 15 11 7 6 6 8 6 5 9 13 13 10 10 9 9 8 6 2 5 6 5 10 11 5 7 12 16 14 11 15 16 13 14 12 11 10 13 20 18 16 19 15 16 29 37 34 32 34 35 32 30 28 31 32
12 12 12 13 13 13 13 12 13 12 13 13 14 14 14 15 15 15 15 14 14 15 15 15 15 16 17 17 18 16 8 10 15 16 15 11 8 7 8 10 8 7 7 11 14 12 11 11 11 9 4 1 5 8 7 8 11 7 5 7 15 17 18 23 21 18 20 18 19 19 18 22 19 14 15 14 23 40 44 40 38 39 37 34 34 34 34 33
13 13 13 13 14 14 14 14 14 14 15 15 15 15 15 16 16 16 16 16 16 16 16 17 17 17 18 18 18 14 12 17 18 16 13 9 9 11 12 13 10 9 7 9 11 13 12 12 14 10 4 4 6 6 5 5 6 7 8 8 9 12 18 24 23 21 22 24 26 22 18 28 29 19 17 21 32 42 40 39 38 35 32 29 31 31 30 29
14 14 14 15 15 15 15 15 16 16 16 16 17 17 18 18 18 18 18 17 17 17 18 17 18 19 18 19 18 13 16 19 15 11 10 10 14 16 17 16 13 10 9 10 10 12 13 13 15 12 8 6 6 5 5 5 4 8 12 11 8 11 18 21 21 21 21 23 21 13 15 31 31 19 19 24 30 32 27 31 31 27 27 26 27 27 27 27
16 16 16 16 16 17 17 17 17 17 18 18 18 19 19 20 20 20 20 19 19 19 19 18 19 20 19 21 16 10 17 18 13 13 14 17 20 20 21 18 14 12 11 11 11 13 14 13 11 10 11 8 5 5 5 6 5 6 9 12 14 15 20 18 17 20 17 19 20 12 12 28 25 9 9 18 24 26 23 29 31 28 30 31 30 30 29 29
16 16 16 17 17 17 18 17 18 18 18 19 19 20 20 21 22 22 22 21 21 21 21 20 20 20 21 22 17 15 21 22 19 21 21 22 22 22 22 18 17 14 13 13 12 12 12 13 10 6 7 5 4 4 6 9 7 8 7 11 16 13 19 18 14 19 14 12 19 16 11 21 16 4 16 31 33 29 26 31 34 32 34 34 33 33 32 32
16 17 17 17 17 18 18 18 18 19 19 19 19 20 21 22 22 23 23 22 22 22 22 21 20 21 21 24 27 26 28 26 24 24 23 23 24 24 22 20 19 15 14 13 12 12 11 13 13 10 7 4 2 1 5 7 5 9 5 6 12 8 14 18 13 16 12 6 9 10 5 11 8 11 30 40 33 27 25 29 34 34 33 31 32 33 33 33
17 17 17 17 18 18 18 19 19 20 20 20 20 21 21 22 23 24 24 22 22 22 22 21 20 21 19 23 32 30 26 25 24 24 23 25 26 26 24 22 19 16 14 13 12 13 11 11 13 14 13 7 3 3 5 4 4 7 1 1 7 7 9 10 5 5 7 5 5 8 3 7 9 21 37 36 29 27 24 27 32 31 29 29 31 33 34 35
17 17 17 17 18 18 19 19 20 21 21 21 21 22 23 23 24 25 24 23 23 22 22 20 20 19 17 24 31 29 27 26 25 26 25 26 27 27 27 23 19 16 13 13 14 13 12 10 11 13 14 12 8 6 6 5 3 4 2 1 2 3 7 7 2 4 2 4 11 9 5 9 9 22 40 33 22 22 20 24 29 29 30 32 35 37 38 40
16 16 16 17 17 18 19 19 20 20 20 21 21 22 23 23 23 24 23 23 23 22 22 20 20 17 15 23 29 25 24 25 24 24 23 23 25 27 25 21 17 15 13 14 14 13 11 9 9 9 9 11 9 4 3 4 3 2 2 4 2 3 6 12 10 7 7 6 11 11 5 9 9 20 35 29 15 15 17 22 27 31 34 36 39 40 42 45
14 14 14 14 15 16 16 17 18 18 18 19 19 20 21 21 21 21 21 21 20 21 20 19 19 15 9 17 23 22 23 24 23 23 22 22 23 25 23 17 13 13 13 14 13 12 11 8 8 8 6 6 4 2 3 4 4 3 2 5 5 5 4 7 13 9 11 5 6 9 6 7 7 14 26 27 20 14 14 23 31 36 37 39 42 41 43 47
11 11 11 12 12 12 13 14 15 16 16 17 18 17 18 19 18 18 18 17 17 18 17 16 14 11 10 16 21 25 25 23 22 21 22 23 22 22 21 16 13 12 12 12 12 10 10 10 7 5 4 2 3 5 2 2 5 4 2 4 5 7 5 4 10 8 6 7 5 7 8 11 11 12 21 30 33 23 17 27 35 37 39 41 42 42 46 48
8 9 9 10 10 10 11 12 13 14 14 15 17 17 17 17 16 16 16 14 13 11 11 12 8 3 10 18 19 21 21 18 18 17 19 20 19 18 16 15 13 12 11 9 10 11 10 7 4 1 1 1 2 5 4 6 8 7 6 5 4 5 6 6 8 7 1 3 4 5 9 14 14 14 21 32 38 32 27 32 36 36 39 41 42 43 47 49
6 6 7 8 8 9 9 11 12 13 14 14 15 16 15 14 13 12 10 8 7 5 5 9 11 5 7 12 13 15 18 18 17 16 17 17 15 14 13 12 12 13 10 5 6 11 10 4 3 2 2 6 8 9 12 14 12 10 7 5 6 6 7 8 11 9 4 5 6 8 14 15 15 15 18 29 34 32 34 35 35 35 36 39 42 44 46 48
5 5 6 7 7 8 9 10 11 13 15 14 15 15 11 11 8 6 7 9 12 12 12 13 16 17 17 17 18 18 18 18 18 16 15 14 11 12 12 11 11 11 8 4 5 8 9 5 3 6 11 15 14 12 15 14 6 4 4 6 8 8 10 9 12 10 1 3 8 11 17 16 15 15 15 26 29 23 28 33 34 35 34 36 40 44 46 48
6 6 7 7 8 8 9 10 11 13 15 16 17 14 9 9 5 5 11 15 18 19 22 23 23 27 28 27 26 24 20 17 18 16 13 13 11 10 12 12 8 5 4 4 4 3 6 7 8 13 16 12 8 10 13 9 5 5 5 7 8 7 12 10 12 13 1 1 7 8 17 17 13 14 15 22 21 17 23 27 32 37 36 36 38 45 49 47
8 8 8 8 8 9 9 10 12 13 14 14 16 14 11 12 9 9 11 12 20 23 23 25 27 32 33 31 32 32 24 16 17 17 14 15 15 11 11 11 6 4 3 4 3 1 4 6 12 18 10 1 2 5 6 7 7 8 5 6 7 4 9 10 9 11 2 2 6 7 15 15 11 16 17 19 19 22 28 28 35 42 37 38 42 43 42 40
10 9 9 10 9 10 11 11 12 13 13 13 14 14 14 15 14 15 12 8 16 21 21 25 29 33 33 32 33 33 26 19 18 19 18 17 17 14 12 10 5 3 5 6 7 6 5 6 14 17 6 1 2 4 6 4 5 7 6 5 7 3 5 8 5 6 4 3 7 10 16 14 11 15 16 22 25 24 29 32 40 45 39 42 49 42 34 36
12 12 12 12 12 12 12 12 13 12 12 12 13 13 14 16 15 17 14 7 9 13 21 28 27 28 30 28 27 26 23 20 17 16 18 20 17 11 9 10 6 3 6 11 12 11 9 7 8 9 6 6 7 2 5 4 5 8 8 6 9 9 9 10 5 7 7 5 4 7 14 11 7 9 9 13 15 17 25 29 32 41 45 46 44 39 36 38
14 14 14 14 14 14 14 14 13 11 11 12 11 11 14 16 15 16 13 6 6 7 13 18 16 18 21 20 18 15 13 15 16 14 14 20 20 10 5 9 7 5 9 10 9 10 10 8 3 4 5 7 7 7 6 7 8 8 6 11 16 15 11 11 8 7 6 5 4 6 9 10 2 5 6 6 4 8 14 15 22 38 46 39 31 34 38 34
14 14 15 15 15 15 14 14 12 11 12 11 11 10 12 12 13 15 10 3 5 4 4 6 5 5 6 9 10 7 3 6 11 15 14 17 21 13 4 6 5 4 7 6 4 4 5 7 5 6 6 7 6 7 7 9 8 8 5 12 16 12 9 10 8 4 1 4 3 4 1 10 4 3 8 8 5 9 9 9 19 31 34 27 25 32 33 28
15 15 14 14 15 15 14 13 13 13 12 11 11 10 10 10 10 12 7 3 5 2 4 3 3 1 1 4 8 9 3 3 2 9 16 17 18 14 5 4 3 2 4 3 2 3 3 3 2 4 5 6 5 6 7 10 6 7 5 8 9 8 9 7 4 4 4 3 3 2 5 7 11 5 5 5 5 8 11 11 16 21 22 23 26 30 28 24
17 17 16 16 17 17 16 16 16 15 12 11 11 10 8 7 7 8 4 3 5 2 3 2 4 1 1 7 13 8 1 1 2 3 12 15 15 10 5 6 6 4 4 5 4 4 4 4 5 6 5 4 7 6 6 11 6 7 3 5 6 6 6 5 5 5 2 3 3 3 5 3 12 6 2 2 4 7 13 15 16 15 16 21 26 27 22 20
19 19 18 17 18 19 18 18 18 15 12 10 10 10 7 5 5 6 3 3 3 3 1 2 3 0 2 8 10 5 3 3 2 3 6 9 13 7 1 5 6 4 4 6 7 5 1 3 5 8 6 6 8 4 7 12 7 4 5 5 4 3 3 4 4 3 3 3 5 6 6 3 11 6 4 4 2 7 11 12 12 10 13 19 22 21 16 18
20 20 19 20 20 21 20 20 19 16 12 10 10 10 5 2 2 2 4 5 1 1 0 2 1 1 3 4 2 4 2 2 2 6 4 4 10 6 1 2 3 3 3 3 6 8 3 2 2 5 6 6 5 2 4 8 5 3 5 4 5 4 4 4 1 3 2 6 6 11 12 6 7 5 4 4 4 6 7 7 8 9 12 16 16 14 14 19
20 20 20 21 22 22 21 21 19 16 13 11 11 8 2 0 2 3 7 2 1 1 1 1 1 1 4 3 1 2 1 2 2 6 3 3 4 3 1 1 1 3 3 4 5 7 3 2 1 5 6 5 6 3 0 1 3 3 3 3 3 4 4 4 4 3 1 8 5 11 13 10 9 6 2 5 5 5 5 5 7 8 11 11 7 10 15 19
22 21 21 21 22 22 22 22 20 17 15 12 10 4 2 1 2 6 5 3 2 2 1 0 1 2 2 1 1 2 0 2 1 4 3 2 3 3 3 4 3 1 4 3 3 5 2 5 4 2 5 7 6 2 2 4 3 4 3 3 1 4 3 3 3 1 3 7 4 7 8 6 11 7 5 9 10 9 8 8 10 8 11 11 8 15 20 17
23 23 23 23 23 23 22 22 20 19 16 10 6 3 5 1 5 3 2 2 2 1 2 1 1 2 2 1 2 2 1 2 2 2 1 2 1 3 5 4 5 2 4 2 2 4 3 5 2 1 4 8 9 5 3 2 4 6 5 5 4 2 2 4 3 2 5 6 3 3 4 4 7 5 9 14 13 11 8 12 16 15 16 16 16 20 20 12
22 23 23 24 24 24 23 22 19 18 15 8 5 4 3 6 5 1 1 5 3 3 2 1 2 1 1 2 3 2 1 2 2 3 1 2 0 3 4 4 4 2 1 1 2 1 4 7 4 6 3 8 12 10 7 4 5 6 4 5 4 4 4 5 4 5 6 4 3 1 3 4 2 2 7 11 9 8 7 11 16 17 17 15 17 18 13 7
23 23 24 23 24 23 23 23 20 17 15 9 5 3 5 8 4 1 3 4 3 3 4 1 3 1 2 3 3 2 4 3 1 4 2 3 2 3 3 4 5 4 2 1 2 2 4 8 7 4 1 9 10 6 4 6 2 3 3 3 3 4 5 3 4 5 3 2 2 3 4 5 4 5 7 7 7 8 9 7 6 10 11 10 14 13 9 7
24 25 25 25 24 21 20 21 18 17 16 10 4 4 8 5 3 3 2 1 2 1 2 4 1 1 4 3 3 2 2 2 1 1 2 3 3 4 4 4 6 8 6 4 2 2 4 6 4 1 1 6 6 2 3 3 3 1 3 3 4 4 5 2 6 3 1 4 6 5 7 6 5 8 5 1 3 5 6 5 5 9 11 10 12 10 6 12
24 24 25 27 26 21 19 17 15 18 17 10 4 7 5 3 5 5 2 1 1 1 1 3 3 3 4 3 2 2 0 1 1 1 2 2 3 4 4 4 5 11 12 7 3 3 4 6 4 4 4 5 2 1 1 1 4 5 3 5 2 2 3 2 2 2 2 8 7 7 13 9 6 8 3 6 7 6 5 5 5 7 8 10 12 8 8 19
23 23 25 27 25 21 20 17 15 19 16 7 7 10 4 3 7 6 4 3 1 1 1 4 4 2 3 4 3 2 2 2 2 2 2 2 3 5 5 4 5 10 12 7 1 2 1 6 6 4 4 3 2 2 2 2 2 4 2 1 2 2 3 1 2 2 5 9 6 7 13 10 7 9 7 9 11 8 6 6 6 5 6 10 10 9 17 25
19 18 18 17 15 16 20 19 19 21 12 4 8 10 3 4 7 8 10 8 3 1 3 5 5 3 3 4 3 2 3 4 3 1 3 3 4 5 5 3 3 5 7 7 4 2 1 3 5 2 2 1 3 1 3 3 1 2 2 3 1 2 3 2 2 2 3 8 7 7 9 8 8 10 11 11 9 6 6 5 5 7 9 9 10 15 23 29
12 9 8 6 6 9 15 19 20 17 8 4 8 8 3 3 5 9 15 12 5 4 5 4 4 5 6 5 4 4 3 4 4 3 4 3 4 4 4 2 2 1 0 5 4 1 2 2 5 2 1 1 2 4 6 6 4 2 1 3 3 2 1 2 2 1 3 6 6 6 7 7 7 10 14 12 6 5 7 6 5 7 9 12 17 21 26 31
7 4 4 6 6 7 15 18 14 9 4 5 8 8 6 6 5 7 13 14 9 8 7 5 5 6 7 6 6 4 3 3 5 5 4 4 5 4 3 4 5 3 3 3 2 2 2 3 5 6 6 5 7 6 7 8 7 5 5 6 6 6 3 5 6 4 3 5 6 8 10 8 5 8 12 9 2 5 5 3 4 10 16 22 25 26 28 29
8 4 2 5 7 10 16 13 7 6 4 6 8 7 6 7 6 6 8 11 9 7 7 6 5 6 6 7 7 4 3 4 5 6 5 6 8 7 6 6 4 2 3 1 3 4 2 1 2 7 8 9 11 6 6 7 6 3 4 5 5 6 6 8 10 5 5 8 8 9 12 7 3 5 9 8 5 4 3 3 5 11 18 22 23 24 25 25
8 7 5 6 5 13 16 7 5 6 4 6 9 9 8 5 4 4 5 7 7 5 5 4 5 8 7 6 7 6 5 5 7 9 8 6 7 7 8 9 7 1 1 3 3 0 2 2 2 6 6 8 11 4 2 3 4 2 3 4 5 6 7 8 7 3 4 8 8 9 10 5 1 4 6 8 10 12 11 8 10 15 23 27 24 25 26 26
6 12 12 8 10 16 13 4 4 6 5 8 9 10 13 9 6 8 5 4 5 4 4 4 4 6 5 4 6 7 6 6 7 9 7 4 4 4 8 9 5 1 0 2 2 1 0 1 1 4 5 5 8 5 2 3 1 2 4 4 5 6 7 6 4 2 4 7 9 11 10 5 2 5 6 8 11 11 14 20 26 24 22 23 24 27 28 27
4 8 12 11 16 18 11 5 5 4 5 10 10 10 12 9 9 14 12 7 7 6 4 4 3 2 3 3 3 4 4 4 3 4 2 2 3 4 12 14 9 5 4 5 5 2 2 2 3 4 7 8 8 8 4 1 2 2 2 4 4 6 8 7 6 7 8 9 10 11 10 7 5 6 7 8 10 11 14 21 25 22 21 22 25 27 28 27
2 2 4 5 13 17 16 13 8 3 3 6 7 8 11 9 8 12 12 10 13 13 8 6 5 3 2 3 5 6 6 6 5 4 3 3 2 2 8 11 12 9 6 9 12 5 1 2 5 8 10 11 11 11 7 4 3 4 6 7 7 7 8 7 6 8 9 9 11 12 12 12 12 8 7 9 11 11 12 15 17 18 19 20 22 25 27 28
1 1 1 1 4 9 12 13 8 4 2 3 2 3 7 8 5 5 7 7 9 10 7 6 7 6 6 6 7 8 8 8 8 7 6 4 2 3 6 5 9 11 8 7 11 4 1 3 5 9 12 11 12 14 12 11 10 10 10 11 11 11 11 11 11 12 10 9 9 9 10 15 14 6 7 10 10 9 9 11 13 15 17 18 20 23 26 28
2 2 1 1 1 3 4 5 6 5 5 5 3 3 7 10 8 5 4 3 3 3 3 3 5 6 7 8 8 5 5 8 7 3 1 1 1 4 6 2 4 12 11 6 7 3 2 4 5 8 10 9 8 10 10 11 11 10 10 11 11 12 14 15 16 15 12 11 11 10 14 18 11 3 5 6 7 8 9 10 13 15 18 19 21 23 24 26
4 4 3 1 2 3 4 6 7 5 4 5 3 3 8 11 11 8 4 3 3 3 4 5 1 3 4 6 5 3 4 6 4 2 2 1 1 1 3 2 2 10 12 6 5 2 2 3 3 5 7 7 7 8 9 10 11 10 10 10 10 12 15 17 16 13 13 17 17 16 18 15 4 4 3 3 3 6 7 9 10 14 18 20 21 22 22 23
4 3 3 3 3 4 5 6 5 3 3 5 4 4 7 9 8 6 3 4 5 4 2 2 2 4 3 4 4 3 4 4 3 2 2 2 1 1 0 2 1 6 8 3 3 3 3 4 5 6 6 7 9 9 9 10 10 12 13 12 14 17 18 17 15 13 15 18 17 16 16 8 3 4 1 2 5 7 7 9 9 10 14 18 19 21 22 22
8 6 3 3 2 3 2 2 2 2 2 4 4 3 5 5 5 5 3 2 2 3 3 4 4 4 1 2 3 3 4 6 4 4 3 2 2 2 1 2 2 5 5 2 2 3 2 3 5 7 6 7 10 12 14 13 13 14 15 17 20 21 18 16 15 14 14 13 13 15 12 4 1 1 1 3 7 8 6 8 10 9 11 16 18 19 20 22
10 9 6 2 2 3 1 1 2 3 3 2 1 2 1 0 5 5 3 3 10 10 8 7 4 3 2 3 2 2 4 6 6 8 8 7 10 11 10 10 9 6 3 2 2 2 2 3 4 6 7 8 12 14 12 10 11 12 12 14 17 18 17 17 13 7 5 4 6 8 4 1 2 3 3 4 5 6 6 9 12 10 9 14 17 17 19 21
Wind_Direction
318 319 318 319 320 322 325 328 329 330 334 333 337 342 343 349 351 354 355 356 357 358 1 2 359 355 353 349 347 347 343 337 330 320 316 328 343 310 276 247 229 230 235 234 235 237 241 227 217 215 212 210 213 212 194 192 173 150 107 122 237 200 201 195 188 204 188 262 273 296 321 309 289 296 287 279 265 266 271 267 265 261 261 266 270 273 274 276
310 311 310 311 310 310 313 313 314 316 317 318 321 322 325 331 332 338 342 342 344 343 346 346 343 342 341 339 340 340 337 334 326 318 312 17 7 350 314 257 237 236 237 237 235 229 237 230 221 216 211 212 218 209 197 197 180 164 116 145 232 206 208 202 199 212 204 253 275 288 300 293 275 287 292 283 264 269 276 271 268 265 266 267 268 272 275 275
303 304 305 306 305 305 305 304 305 305 306 307 307 309 311 312 315 320 322 325 326 328 329 330 330 329 330 331 333 335 336 332 324 331 22 347 341 344 329 277 240 233 229 229 226 216 221 221 223 220 213 215 217 209 195 190 193 196 151 192 244 219 226 236 233 237 242 264 284 291 296 282 277 283 272 264 279 277 260 264 266 264 271 276 274 273 275 275
294 295 297 299 301 301 300 301 300 299 299 299 299 301 301 302 305 306 308 312 312 315 317 320 321 321 323 325 328 332 336 331 316 75 18 341 336 342 339 317 259 238 231 225 222 218 217 210 214 215 212 219 221 222 213 201 199 188 166 205 237 194 228 249 249 256 261 270 271 279 295 288 286 282 253 254 297 280 253 262 266 267 279 287 285 280 277 275
288 289 290 291 292 294 295 295 294 295 294 294 295 295 297 298 298 300 302 303 305 307 309 312 314 316 317 319 322 327 340 343 169 95 342 334 334 343 353 346 310 253 237 231 231 226 219 207 204 205 207 220 196 194 234 211 193 181 208 230 240 197 231 259 261 272 274 271 269 274 284 285 288 279 256 237 225 263 268 274 277 279 285 289 287 282 277 274
284 285 285 286 286 287 288 289 289 290 288 289 290 290 293 294 296 298 297 299 301 301 303 305 307 309 311 313 314 319 330 312 263 303 319 318 308 318 339 339 330 282 246 235 236 230 221 208 201 201 196 216 196 194 234 211 194 227 242 237 247 237 242 265 266 272 279 273 268 271 278 284 286 282 269 230 229 269 280 281 281 283 286 286 284 277 275 274
283 283 284 284 284 285 285 286 287 286 286 286 286 286 287 288 290 291 292 296 296 297 300 300 303 304 305 308 307 308 294 272 287 299 303 301 288 294 313 323 323 298 264 242 238 230 225 211 207 205 182 233 219 210 234 216 198 228 266 241 251 247 247 264 268 269 275 273 272 277 283 282 273 278 277 233 250 278 286 285 281 283 285 283 281 276 276 276
282 283 283 284 283 284 284 285 286 286 287 287 287 287 286 286 286 286 288 289 290 292 293 295 298 299 301 303 303 297 274 281 295 296 293 287 285 295 302 311 315 300 279 257 247 236 233 221 218 213 192 227 220 209 223 231 209 213 245 250 250 253 257 269 274 273 273 272 275 277 273 271 269 274 273 256 266 280 287 288 284 284 285 281 280 279 277 276
283 283 282 283 283 284 284 285 286 286 286 287 288 288 288 288 286 287 286 286 288 287 288 291 291 294 296 295 296 287 279 291 297 290 287 283 291 295 294 301 304 294 278 263 249 237 236 231 230 227 233 241 225 222 199 215 238 214 232 255 262 263 270 276 275 273 273 272 268 261 261 269 273 282 274 264 272 282 287 287 286 286 285 282 281 283 280 278
282 282 282 283 283 284 284 285 285 286 287 287 287 288 288 287 287 287 286 286 286 285 286 287 288 290 290 288 284 273 283 294 293 288 290 287 290 289 287 293 292 284 271 260 248 241 240 239 243 239 247 256 233 225 191 197 240 246 254 273 273 273 279 276 272 274 273 270 256 225 247 267 274 288 268 268 278 283 285 285 288 286 286 288 285 285 283 281
280 280 281 281 282 283 283 284 284 284 284 285 285 285 285 284 284 283 283 284 283 283 282 281 284 283 282 281 263 258 283 290 289 290 290 288 286 282 284 285 282 277 264 259 251 251 249 242 243 232 238 246 231 220 217 224 246 281 305 298 283 290 293 278 266 271 262 265 253 219 237 273 277 250 251 271 280 279 280 285 288 288 288 292 291 289 287 285
276 277 278 279 280 281 282 283 283 284 283 284 284 283 283 282 282 281 281 281 280 279 278 276 276 273 276 273 262 267 284 285 285 286 284 284 282 279 281 279 277 272 262 259 251 251 246 239 236 228 232 227 238 237 230 237 256 286 321 309 293 324 306 279 262 260 233 237 249 201 237 284 267 242 257 273 281 278 278 283 287 290 292 294 293 294 291 290
275 276 276 277 278 279 280 281 281 283 283 283 283 282 282 281 281 282 281 281 280 278 276 274 271 270 269 267 269 277 283 280 279 279 279 279 278 277 277 275 271 263 258 254 248 246 237 236 230 230 242 237 240 253 255 277 281 283 318 280 299 338 309 272 231 230 206 206 179 154 254 263 244 260 269 277 280 279 278 279 285 288 290 291 291 291 290 290
275 275 276 276 278 279 280 281 282 283 284 285 285 284 283 283 282 283 283 282 280 277 276 274 270 269 262 264 274 279 277 276 276 275 275 276 275 275 273 271 267 258 253 247 244 244 235 233 225 229 245 244 247 258 280 314 306 289 302 242 311 319 286 278 212 150 213 238 171 158 263 249 244 269 277 283 279 275 273 275 283 284 285 287 286 287 287 287
277 278 279 280 280 282 283 285 286 287 289 289 289 289 288 288 287 286 285 283 279 277 274 272 268 266 262 269 275 277 276 274 274 274 273 271 269 270 270 269 265 255 245 238 237 238 232 221 212 218 239 245 245 255 310 335 352 11 285 284 304 206 269 301 294 207 214 245 172 169 252 258 252 262 275 287 282 269 268 272 281 282 283 283 283 284 285 286
285 285 285 286 286 287 290 291 293 295 297 298 297 297 296 295 295 293 291 285 279 273 268 266 265 258 258 275 274 273 274 273 275 276 270 267 263 262 263 262 259 248 236 230 230 230 222 205 206 218 232 243 216 134 29 351 326 343 213 255 263 243 274 312 300 247 201 202 184 200 239 266 264 256 272 287 286 274 268 275 279 280 282 281 281 282 283 285
293 293 292 295 295 297 301 300 303 306 307 309 305 305 306 304 303 300 295 287 277 266 260 259 259 254 250 264 271 272 274 275 277 275 269 266 261 256 253 247 241 233 223 218 221 213 200 195 199 224 237 243 115 112 55 302 275 293 215 235 244 248 261 283 300 294 181 170 214 231 239 253 263 269 277 282 284 283 273 274 277 279 280 280 280 279 280 280
297 298 299 302 304 309 311 311 315 315 317 320 316 316 316 313 310 305 298 288 272 258 253 240 222 246 257 251 261 273 279 279 276 274 271 264 254 248 241 235 230 215 200 199 205 190 186 188 172 210 316 337 120 135 188 230 228 237 231 243 262 247 250 251 269 289 286 215 235 251 252 256 266 276 278 277 279 283 279 276 277 277 277 278 277 275 275 275
299 302 305 308 312 318 319 322 326 325 326 329 326 325 324 324 320 310 301 281 248 229 249 221 198 202 256 253 263 275 280 278 275 271 267 261 247 233 221 219 210 188 171 167 198 185 174 142 117 164 236 233 216 177 202 224 220 228 232 241 267 264 252 245 251 259 286 289 262 258 261 261 268 270 273 275 276 280 281 279 277 275 274 274 274 272 272 272
301 302 305 310 314 320 326 329 333 335 333 333 337 338 340 346 337 311 301 280 260 257 264 251 236 242 254 264 272 274 275 275 271 263 258 257 239 213 197 185 176 176 172 157 187 185 170 170 173 192 214 226 221 194 211 231 238 254 249 249 257 264 264 258 266 270 71 298 256 248 265 265 265 268 267 271 273 274 278 281 278 274 272 271 272 274 273 273
299 300 302 308 311 317 324 328 332 337 337 338 346 354 5 4 349 306 309 296 284 276 270 268 260 254 258 263 264 265 269 271 267 258 250 244 221 195 186 170 154 182 199 146 140 155 171 195 212 212 218 223 208 197 219 241 271 265 245 262 262 253 266 267 273 279 341 283 253 239 267 269 263 267 264 266 268 258 258 268 275 276 274 273 272 273 274 276
292 294 299 302 305 311 317 325 329 333 339 341 348 1 7 356 341 321 316 294 290 289 277 272 263 256 260 262 259 259 258 263 263 251 240 225 204 196 185 168 169 193 158 130 127 189 205 221 229 225 226 37 100 164 200 226 240 250 247 272 270 255 280 275 265 284 324 234 272 274 274 272 260 258 257 255 252 251 251 253 264 270 273 275 272 271 274 280
282 286 292 295 297 303 310 321 325 329 337 342 348 357 359 352 347 337 324 279 284 291 278 270 262 257 259 260 257 252 245 245 252 246 236 215 194 199 189 164 176 169 144 185 197 207 220 235 236 233 233 306 274 111 125 209 238 234 227 252 268 262 279 268 260 311 330 236 275 293 284 278 256 250 250 249 249 255 258 254 258 264 266 268 269 271 275 279
278 281 287 291 294 299 305 315 320 324 329 340 348 352 355 352 351 343 327 280 273 282 273 269 260 255 256 255 253 246 237 235 241 243 233 213 190 189 194 170 159 161 191 208 211 223 234 245 236 221 203 208 241 201 149 224 258 229 214 222 255 252 246 254 281 335 323 285 299 314 298 285 234 226 242 255 253 252 256 254 256 261 261 262 266 271 274 275
283 286 289 293 295 298 303 309 313 316 320 333 340 344 353 352 352 347 333 298 277 272 263 261 253 251 252 250 247 239 234 236 238 240 231 214 199 182 178 176 169 199 215 212 223 241 249 258 233 155 183 192 211 237 200 206 251 256 216 209 236 249 252 260 288 341 344 306 337 17 318 295 173 172 242 273 268 243 247 247 248 252 254 257 264 270 273 277
283 288 292 294 296 300 303 306 306 306 314 325 327 336 347 350 353 349 342 319 287 264 214 227 233 250 245 242 231 203 216 257 239 229 219 212 208 197 162 173 183 214 206 198 231 251 250 250 219 174 187 175 184 247 219 193 241 280 233 210 228 243 252 259 274 320 300 258 291 71 339 288 292 183 236 245 238 251 248 233 242 247 252 261 266 268 274 282
277 283 288 290 293 297 299 299 294 299 310 314 316 326 336 348 0 354 353 332 288 220 142 182 176 104 296 199 173 156 192 276 207 207 201 199 203 200 198 191 185 220 170 139 273 243 204 223 208 181 173 153 177 247 218 173 204 270 236 198 208 220 231 232 217 221 237 277 300 131 135 277 287 266 226 210 191 256 261 250 253 255 261 271 270 270 277 286
277 280 282 283 285 288 292 292 291 300 308 304 303 307 325 351 358 5 28 297 288 114 112 182 157 83 7 165 170 161 9 355 75 187 192 192 196 193 228 215 182 201 167 153 241 244 166 190 197 166 141 168 206 228 178 155 192 253 204 154 176 195 202 170 162 200 247 348 302 207 137 246 278 279 63 96 167 235 255 251 256 263 270 273 270 272 280 294
272 275 276 275 276 279 284 286 289 298 301 297 292 290 316 349 359 35 88 248 292 79 86 194 160 351 87 147 187 220 358 21 60 158 167 188 197 184 261 221 180 198 210 193 232 257 188 201 187 152 144 208 215 210 164 165 201 227 120 93 75 71 80 108 143 142 82 310 249 195 162 220 277 276 89 78 184 226 245 249 260 281 284 276 269 268 284 307
266 268 269 269 271 274 278 281 286 291 289 287 280 280 297 312 22 68 220 244 343 44 126 161 198 260 102 107 247 273 292 335 89 137 134 158 191 191 66 211 156 150 255 272 257 257 255 73 114 167 192 199 167 132 175 175 180 127 102 55 29 25 36 56 45 89 79 280 234 186 182 187 274 285 141 170 215 212 231 257 283 300 285 270 262 271 306 318
267 266 264 265 268 270 273 275 280 282 278 276 274 277 296 24 93 192 231 254 32 282 107 123 301 76 108 105 285 287 287 279 142 144 145 103 162 191 78 169 113 77 327 305 280 275 261 147 207 217 204 162 117 107 322 88 115 117 99 60 8 327 13 30 350 50 165 266 238 184 182 185 232 259 207 246 258 220 214 240 266 285 280 267 257 289 312 312
268 266 264 264 264 267 270 271 275 276 277 277 267 265 58 23 239 222 251 11 6 266 94 154 316 80 95 55 239 235 126 254 188 139 154 118 147 194 194 195 180 355 308 252 270 313 276 219 230 227 203 177 145 139 337 12 90 127 127 123 322 306 344 348 311 63 212 261 262 182 175 208 242 253 263 266 269 251 219 217 238 250 258 266 288 298 300 304
267 264 263 263 263 266 267 270 275 275 276 271 236 136 89 244 249 224 255 319 262 301 59 124 55 103 135 346 278 234 139 219 185 142 148 118 142 249 257 229 172 211 271 216 319 326 292 270 203 134 244 194 165 172 232 248 170 159 152 158 176 210 259 268 263 265 257 269 286 182 177 257 277 273 242 238 253 262 236 230 244 248 253 271 292 295 295 306
266 266 264 261 260 261 261 263 268 270 267 241 178 118 128 232 250 111 195 243 266 339 4 101 67 40 167 227 251 198 201 268 151 129 82 87 42 275 266 251 196 175 244 230 316 234 262 289 204 176 225 179 179 201 196 144 150 181 160 143 174 181 200 234 231 250 268 283 309 212 188 224 245 262 231 227 254 287 271 245 251 257 261 276 288 288 289 307
265 266 264 261 260 256 256 256 255 259 251 214 164 157 214 236 254 228 219 237 275 308 307 2 83 1 284 247 266 220 203 252 108 120 160 163 194 221 208 223 199 158 130 216 271 161 228 272 241 220 154 159 183 218 166 113 130 211 123 114 230 202 183 243 255 237 249 311 289 230 223 228 227 255 254 251 271 280 275 267 272 270 263 272 279 274 274 313
265 265 262 261 258 255 256 251 247 252 235 198 171 228 226 233 208 192 215 201 208 220 310 326 105 211 276 258 297 300 178 206 233 136 199 194 205 212 208 228 197 174 171 189 224 199 240 270 263 338 299 185 193 214 136 151 198 170 121 191 232 173 151 239 281 265 223 264 262 246 255 277 295 282 276 355 332 316 309 305 286 263 255 262 262 248 274 332
270 269 266 262 259 256 253 243 239 241 221 184 211 237 221 221 193 193 207 151 208 120 78 295 240 198 252 257 281 293 164 229 234 172 218 232 233 192 194 249 206 188 203 211 231 235 246 275 249 170 219 238 189 110 30 106 145 135 176 222 214 118 129 149 265 294 256 254 261 260 266 279 292 280 314 16 342 340 345 322 296 278 263 247 238 240 327 345
273 275 273 269 266 259 247 236 226 223 209 179 238 239 217 217 204 188 187 178 182 59 141 245 247 219 237 250 263 232 188 216 177 158 211 232 241 177 165 237 209 199 216 207 215 262 249 279 267 160 185 262 64 89 313 320 153 152 215 242 110 199 241 154 193 238 245 253 254 253 266 274 259 259 284 304 299 304 310 308 317 305 258 239 249 304 336 340
272 277 279 274 269 254 237 227 214 207 197 182 237 236 215 217 215 201 204 204 191 191 229 236 238 271 265 232 237 229 209 205 170 186 211 212 239 195 169 217 209 216 220 172 170 275 33 266 272 69 89 334 32 122 202 238 277 46 355 325 69 182 216 193 189 191 235 254 255 250 259 262 256 261 269 269 268 280 290 295 297 276 254 256 290 316 325 334
266 267 271 254 249 240 217 206 200 195 192 216 230 233 230 232 237 222 216 215 207 210 237 241 217 244 262 239 232 251 244 216 201 224 228 228 254 227 196 201 151 110 231 153 171 268 57 236 256 289 327 268 243 212 188 195 205 139 163 256 241 208 227 265 243 191 237 254 255 253 249 247 258 265 267 266 234 217 256 280 293 289 288 296 305 317 332 346
229 239 265 227 227 217 189 184 191 194 204 232 233 240 247 247 254 240 226 223 227 229 235 236 215 233 254 253 246 237 230 232 220 225 233 233 247 252 225 203 181 145 80 85 178 203 203 225 237 252 256 243 238 221 194 193 189 181 194 206 220 227 241 271 255 209 210 239 241 254 257 248 243 258 274 286 222 193 242 280 291 298 307 315 324 339 355 4
189 216 257 200 215 200 177 176 201 209 207 229 235 243 250 251 254 256 238 224 222 232 240 238 227 234 244 250 251 230 217 241 221 221 239 227 226 233 232 240 241 167 131 218 232 214 195 126 220 246 254 265 265 239 191 191 168 168 215 201 214 220 210 241 254 241 228 233 232 250 261 255 219 257 286 308 316 295 272 227 261 313 342 1 3 3 11 18
198 223 205 159 192 199 186 188 230 208 217 250 251 253 254 258 260 256 240 217 210 221 236 235 234 239 236 235 241 232 224 227 218 228 243 236 233 244 258 277 295 316 243 275 279 278 85 92 251 259 263 280 281 270 104 96 107 137 238 203 198 219 222 236 249 258 247 237 237 253 261 260 347 318 316 326 326 320 317 346 30 28 31 38 31 18 19 20
236 248 236 197 187 200 198 202 224 214 232 247 251 253 251 251 252 252 248 208 200 216 236 241 246 247 243 239 243 238 232 228 231 240 241 240 263 333 8 356 346 22 350 282 276 297 227 171 230 280 277 282 287 286 16 27 80 197 244 230 219 243 265 276 278 289 261 235 236 254 259 251 315 337 331 319 318 320 341 20 46 50 39 33 27 23 22 18
288 266 255 224 205 215 233 242 231 235 232 238 248 251 251 253 244 247 252 242 229 234 250 261 279 293 272 277 290 271 239 220 245 269 258 251 262 27 33 30 40 52 48 37 12 332 236 227 219 253 258 256 270 269 254 213 185 201 279 267 254 248 251 266 270 261 257 240 233 250 265 266 283 313 317 320 336 349 2 25 44 48 37 31 28 25 23 20
327 282 285 247 217 227 247 253 254 255 220 238 247 234 240 251 247 243 246 247 242 238 243 257 271 296 264 246 264 269 250 219 214 240 254 262 256 31 26 36 51 47 45 34 17 9 207 266 241 242 254 254 264 272 283 309 278 269 286 282 283 277 258 260 260 251 263 266 252 254 267 273 276 296 336 1 7 4 360 11 27 34 34 32 27 25 26 25
336 249 201 309 248 238 248 260 277 289 281 294 282 232 246 255 273 261 235 237 240 234 240 247 238 237 235 237 248 255 253 239 227 234 249 256 261 332 356 45 61 40 39 30 13 16 188 295 261 252 261 259 268 282 294 304 290 280 285 281 279 280 271 264 259 259 271 274 265 268 279 280 281 304 14 16 2 358 0 0 7 18 24 26 25 24 24 24
209 267 199 128 291 259 251 282 320 327 321 322 315 301 278 264 271 273 245 274 286 235 238 257 245 248 255 264 265 250 247 248 237 225 256 4 345 334 352 30 73 38 34 20 9 43 192 270 261 265 279 280 290 300 300 298 292 289 291 285 282 280 273 266 264 269 275 271 276 288 284 284 294 7 50 26 355 343 347 346 354 9 15 18 19 18 17 18
231 267 276 298 285 283 303 323 335 334 312 300 280 265 267 263 267 267 255 291 296 226 222 236 261 9 344 325 304 257 251 262 249 167 135 71 4 333 347 326 46 33 25 6 345 344 229 268 282 289 302 302 298 295 292 293 293 292 290 288 288 281 272 271 275 280 277 271 276 282 279 280 321 69 58 34 360 328 329 340 356 10 10 10 11 10 9 9
245 253 295 333 308 284 296 302 309 320 296 274 252 248 260 265 280 293 280 269 267 258 243 226 42 30 22 15 355 303 306 326 336 21 100 97 62 99 1 269 298 4 0 348 320 317 293 304 327 329 310 292 288 286 284 285 287 291 293 290 285 277 272 275 277 275 271 270 272 274 272 274 65 70 338 335 351 346 346 347 349 358 3 5 4 1 359 357
245 249 285 337 302 261 267 293 288 271 265 240 226 261 266 258 296 327 333 2 41 78 70 50 15 359 13 29 1 331 355 24 21 354 9 5 287 279 279 259 299 340 336 286 271 328 319 294 316 319 295 283 291 288 286 292 292 287 283 277 273 271 270 269 265 263 269 273 278 278 273 272 51 16 287 308 341 353 348 334 329 328 348 358 355 351 349 348
250 257 258 249 275 264 232 355 314 240 244 246 249 327 290 80 17 356 305 58 84 90 67 42 5 346 354 317 328 48 9 350 326 305 306 289 271 265 253 249 254 258 263 286 280 246 251 273 289 293 285 283 284 282 292 307 296 279 269 264 263 264 266 266 265 285 307 275 272 277 266 136 271 281 317 318 334 344 323 321 320 304 317 343 341 337 339 339